Wind_Speed
2 1 2 2 4 5 7 8 10 11 11 12 12 11 10 10 13 13 13 13 11 11 4 6 7 6 5 5 4 16 15 9 8 4 3 2 6 1 5 7 10 11 8 12 12 14 13
1 1 1 1 3 4 5 7 8 10 11 11 11 10 9 8 8 9 10 13 11 6 9 12 7 4 4 4 8 12 11 10 8 2 2 4 3 3 5 6 3 10 13 11 7 8 11
1 0 0 1 2 3 5 6 8 10 10 10 10 9 8 6 6 7 10 10 6 3 5 7 3 4 13 3 10 11 8 10 10 8 8 10 8 4 7 10 12 15 11 9 7 6 4
3 1 1 1 1 2 3 5 7 8 9 10 10 8 6 5 5 8 6 1 5 4 7 5 3 2 4 2 6 12 7 9 10 10 8 9 8 7 4 13 10 7 8 5 5 6 4
4 3 1 2 1 0 2 4 6 7 9 9 9 8 5 4 5 3 2 2 3 3 7 6 5 3 4 2 4 9 9 4 5 8 7 7 6 3 6 8 4 6 3 5 5 1 5
5 4 2 2 3 1 1 2 4 7 8 8 8 7 4 3 3 2 3 2 7 5 5 3 3 1 3 3 4 6 6 7 3 3 3 2 2 4 5 4 2 2 5 2 6 5 5
7 5 4 3 4 3 2 1 3 6 8 8 8 8 3 3 3 1 1 8 3 2 11 5 6 4 4 2 4 7 8 10 2 2 3 1 2 4 8 5 2 3 4 5 6 4 2
8 6 5 4 4 4 3 2 2 3 6 7 7 6 3 3 3 2 4 3 2 1 3 3 5 6 4 3 1 12 13 1 3 3 2 2 4 6 5 2 2 3 4 1 4 3 3
10 9 7 6 5 5 5 3 3 3 5 6 6 5 3 3 3 2 2 1 2 4 3 4 2 4 2 6 4 6 10 4 4 2 3 2 6 5 4 4 5 4 2 3 3 7 8
13 11 9 8 6 6 6 5 3 2 3 4 5 4 1 1 2 1 3 4 3 3 2 3 2 3 1 2 3 3 5 2 1 4 6 6 4 4 3 4 3 4 6 5 3 5 2
16 14 12 10 8 8 7 6 4 3 3 4 2 4 4 2 2 1 1 4 1 0 4 2 3 2 1 2 2 4 4 5 3 4 1 3 6 4 3 4 1 4 5 2 2 3 6
18 17 15 13 11 9 7 7 6 3 2 3 2 2 2 3 3 0 3 3 1 0 5 3 3 3 4 2 2 2 1 6 2 4 7 4 5 2 3 6 3 5 4 4 3 2 2
23 21 18 16 14 11 10 9 8 5 2 1 1 2 2 1 2 4 4 3 2 3 2 3 3 3 4 4 3 3 3 4 4 4 5 3 4 3 3 5 3 3 2 1 2 0 5
26 25 22 20 18 14 12 11 9 7 4 1 3 1 6 4 4 5 1 2 3 2 3 3 2 2 3 5 1 4 2 4 6 2 3 5 4 9 8 2 3 7 4 3 6 4 2
31 30 28 25 21 18 16 13 12 9 6 5 5 2 3 4 3 5 1 2 3 4 4 6 2 3 4 2 3 3 5 3 6 11 7 4 3 4 4 2 3 5 4 2 1 4 1
26 32 29 28 25 22 19 15 13 11 8 8 5 3 3 1 5 2 1 4 2 3 2 2 3 7 3 6 2 4 6 1 4 1 6 2 2 4 2 3 3 2 1 3 2 3 5
14 21 27 29 28 27 22 18 15 13 10 10 5 1 3 5 4 1 3 4 3 3 2 2 3 2 4 6 6 5 4 1 6 2 3 2 2 4 5 8 8 4 3 2 2 3 5
17 16 21 29 27 29 27 22 16 15 13 10 3 1 1 5 2 3 3 3 3 3 2 2 2 3 3 4 4 4 5 4 8 6 5 1 1 5 6 3 3 2 5 6 4 5 3
9 15 16 19 31 30 29 24 22 19 17 10 3 2 1 2 3 4 2 1 1 4 4 4 4 4 4 1 2 7 3 4 6 5 1 3 4 2 2 1 1 4 5 2 5 2 6
8 10 18 16 25 32 31 28 26 23 24 10 3 2 1 1 1 1 2 4 4 2 2 3 2 5 2 4 2 3 2 1 1 1 4 3 3 4 7 2 4 5 9 13 10 4 4
6 10 12 17 23 31 32 29 28 29 25 11 2 2 2 3 4 5 4 3 4 5 3 6 4 7 7 6 3 5 5 3 3 6 3 2 4 3 3 2 2 5 6 14 19 23 11
6 8 11 11 22 28 31 33 32 29 21 4 3 3 1 1 1 7 6 5 8 5 7 5 5 9 8 6 6 6 6 4 5 7 4 2 2 1 4 5 6 8 9 10 19 21 21
7 7 6 8 17 28 34 35 31 30 27 5 4 2 3 5 3 4 5 6 2 2 5 3 4 5 7 7 4 4 5 4 1 8 8 6 4 3 5 2 5 11 16 22 17 13 20
6 3 3 3 12 29 35 31 30 34 35 10 7 5 3 2 4 5 5 4 9 6 5 2 2 3 4 13 10 7 6 5 3 3 1 6 5 3 2 1 8 5 3 2 14 16 12
6 3 2 4 13 18 28 28 32 32 34 14 11 5 3 2 2 3 6 3 3 4 2 3 4 3 13 3 2 1 1 1 1 4 2 3 4 3 3 5 12 16 2 5 6 4 3
6 5 4 4 10 12 28 30 33 33 32 26 14 11 3 2 6 1 3 6 4 4 3 3 3 6 3 2 2 4 5 4 3 2 1 1 3 1 2 4 6 3 0 1 2 3 3
8 7 6 7 8 14 26 33 29 35 34 27 11 17 5 3 2 1 3 3 4 3 2 4 5 2 3 3 4 5 4 0 5 7 6 4 2 9 9 7 6 1 3 1 4 4 2
10 11 10 10 10 15 18 32 38 37 38 30 11 21 7 1 2 4 4 1 2 3 4 4 3 2 2 4 4 3 4 5 1 5 7 8 8 4 5 5 10 2 1 5 3 1 1
13 13 13 14 13 15 19 23 41 42 38 29 7 19 13 7 3 4 6 4 3 1 3 7 1 3 4 4 4 2 2 1 2 3 2 4 5 5 9 3 2 4 3 2 2 1 2
Wind_Direction
18 82 94 65 48 39 33 34 33 30 29 30 32 40 51 59 69 79 86 106 114 117 137 311 317 332 321 75 19 337 348 25 22 11 124 227 202 238 150 100 67 98 95 76 84 80 76
8 16 75 63 56 47 39 34 30 27 25 29 33 41 54 67 80 83 92 104 100 77 67 46 46 9 271 94 345 346 2 26 11 33 70 317 13 347 94 116 354 111 114 117 98 104 136
222 79 225 6 41 39 37 31 27 25 24 27 33 40 50 69 93 103 113 117 49 27 2 11 326 57 54 73 6 7 33 42 36 43 60 13 7 342 55 91 112 121 109 126 129 117 103
239 246 198 200 87 42 34 27 22 23 22 22 25 39 48 76 100 118 115 2 347 5 359 314 34 346 80 12 42 24 35 57 66 77 66 38 43 60 93 124 143 164 149 163 145 153 148
237 238 222 215 199 47 19 19 14 17 22 22 21 26 50 73 149 170 303 307 329 326 352 17 340 265 95 51 36 7 24 12 75 88 76 82 53 83 137 156 160 213 247 172 167 268 141
228 238 241 215 211 209 319 359 8 8 15 19 18 13 50 82 144 182 351 74 41 6 329 314 8 41 53 30 354 342 355 358 5 148 87 45 127 146 180 209 206 219 211 66 139 167 227
233 237 243 243 223 213 238 316 358 2 4 13 15 10 48 102 137 150 84 306 215 166 39 50 18 98 66 337 78 18 354 327 242 360 148 164 140 68 65 58 356 334 30 124 94 110 292
232 235 237 237 236 225 234 264 309 357 1 8 13 22 72 96 138 149 354 344 46 36 132 79 115 88 69 302 201 14 6 251 244 109 206 192 109 86 65 18 140 105 102 103 106 83 257
236 236 236 237 244 237 231 253 294 347 359 4 15 32 122 55 114 110 5 78 120 359 263 107 56 53 16 334 45 358 348 321 42 105 16 92 93 122 166 157 137 59 23 76 46 342 246
236 238 240 241 242 242 237 241 268 322 353 7 24 37 51 55 100 147 129 240 167 47 268 124 148 65 336 336 74 14 353 337 266 104 80 83 136 148 148 90 321 133 67 71 34 6 310
235 236 238 239 238 241 235 244 255 292 337 358 32 62 39 54 97 333 228 167 163 255 340 81 91 6 91 24 110 56 335 272 109 101 274 108 150 176 191 83 348 112 70 59 341 285 313
234 236 236 239 239 237 237 235 242 252 312 340 358 358 19 36 53 5 146 143 336 301 251 126 117 149 169 134 86 139 55 24 47 83 46 89 4 21 47 101 50 128 177 179 189 221 286
236 235 235 237 236 235 238 233 230 228 240 350 17 30 35 17 63 126 131 259 314 220 117 151 176 183 241 150 154 214 187 166 167 138 182 140 186 94 157 137 155 201 165 134 291 231 234
238 238 237 235 235 233 233 232 223 215 216 177 152 28 54 78 123 131 332 242 244 338 83 29 83 174 213 135 168 170 198 248 189 47 182 174 237 164 176 268 192 186 184 188 225 213 225
242 238 236 234 232 233 228 224 217 206 208 175 139 94 54 25 135 127 307 208 255 28 91 132 142 211 192 111 28 200 236 249 188 179 195 177 143 43 35 44 347 153 194 51 57 225 298
242 248 248 242 234 231 229 220 211 200 192 158 125 124 27 113 142 77 30 251 321 22 80 126 248 186 246 158 176 196 203 50 149 25 63 12 62 177 86 24 318 341 98 121 218 238 252
237 242 249 247 239 229 226 217 208 199 182 162 136 156 351 136 126 23 208 228 111 97 28 269 300 284 249 167 188 191 262 346 85 109 47 356 85 131 120 205 177 171 232 200 326 184 205
245 239 239 243 245 235 223 211 202 190 169 158 135 212 35 146 122 215 227 330 14 154 124 227 273 302 259 147 186 262 248 65 106 133 166 139 138 197 198 76 6 339 212 175 181 233 229
278 245 240 237 239 235 230 207 190 182 177 149 109 73 354 6 187 202 182 221 255 166 193 184 221 217 28 159 257 236 99 311 120 156 163 175 220 228 221 356 151 229 190 250 95 98 213
267 264 248 244 233 235 225 203 191 175 178 134 119 122 343 334 315 61 165 234 223 178 245 200 122 85 137 197 215 293 146 106 342 139 69 110 284 236 247 88 106 207 209 200 192 175 231
290 282 264 250 226 223 219 205 181 177 182 141 193 191 174 190 235 218 119 290 219 185 242 165 210 198 170 205 204 226 195 130 217 231 101 164 235 248 275 107 179 235 220 207 211 228 231
313 300 294 233 213 212 213 194 187 179 170 144 151 171 71 251 230 169 170 223 223 214 160 228 232 194 190 204 200 184 145 165 205 191 143 146 259 55 270 211 208 255 234 252 229 231 248
327 316 333 208 221 211 201 186 187 172 172 174 158 119 117 139 139 139 203 203 220 351 219 63 218 165 208 227 83 80 60 61 197 168 171 160 181 160 253 44 328 279 209 215 225 223 228
344 328 11 206 215 200 191 193 188 186 182 160 152 149 125 218 186 206 198 199 220 215 265 76 311 141 105 112 100 80 56 56 48 32 235 164 157 165 305 17 255 260 97 177 223 246 235
343 338 223 205 213 220 212 207 190 186 191 195 159 158 151 224 179 227 214 155 93 56 88 146 39 6 151 83 116 184 224 321 135 24 18 20 159 207 219 218 301 305 194 151 167 275 343
332 313 276 258 219 233 224 223 201 190 192 201 188 164 126 147 208 53 172 161 167 183 138 109 28 160 45 190 171 227 227 215 191 146 65 68 15 217 129 234 245 253 121 330 85 283 353
315 312 297 265 234 233 222 227 220 202 193 191 187 187 134 185 121 62 170 183 152 122 83 129 148 177 316 188 206 218 231 204 193 184 172 150 181 220 227 249 279 204 140 127 102 242 298
309 312 308 282 253 234 231 228 224 210 192 188 184 182 169 142 77 24 33 147 62 150 160 129 129 205 164 209 218 207 236 200 253 136 171 167 167 190 200 231 264 77 56 170 189 278 44
305 309 297 290 265 254 234 229 221 206 190 188 144 180 174 78 82 85 94 80 79 20 111 181 14 149 164 196 217 264 215 123 256 243 44 217 210 184 197 215 54 21 90 186 182 223 354
Height
822 822 821 821 821 820 820 818 817 815 813 812 810 809 808 807 807 806 806 805 806 807 807 806 806 805 804 806 814 812 808 805 804 802 801 799 799 796 801 805 813 827 835 838 842 843 849
823 823 822 822 821 821 820 819 818 816 814 813 811 810 809 809 809 808 808 809 809 809 807 807 805 806 805 811 815 812 809 807 805 803 803 800 799 797 800 808 812 823 834 839 843 846 853
822 822 822 823 822 821 820 820 819 817 816 814 812 811 810 809 809 810 810 810 811 810 808 807 806 806 808 819 817 813 811 809 807 805 806 804 803 802 806 820 821 828 839 842 845 848 855
823 822 821 822 822 822 821 820 819 818 816 815 813 811 811 811 811 812 812 811 811 810 809 808 807 807 815 817 817 814 812 812 810 809 809 808 807 808 811 819 825 828 835 843 846 847 856
822 822 821 821 821 822 821 820 820 818 816 815 814 813 811 811 812 812 812 811 810 810 809 809 809 808 817 818 818 817 816 815 813 811 811 811 811 815 818 824 830 825 830 830 850 847 850
821 821 821 820 820 821 822 821 820 819 817 815 814 813 812 812 813 814 814 813 812 810 809 810 811 813 819 821 821 819 817 817 815 812 812 812 815 821 822 824 830 825 828 824 842 850 849
820 820 820 820 820 820 821 821 820 819 818 816 814 814 813 812 813 814 814 813 815 814 815 820 819 821 822 823 821 821 819 817 815 814 816 817 822 829 838 837 835 832 827 829 842 850 855
818 819 819 819 820 820 820 820 819 818 818 816 814 814 814 812 813 814 815 814 818 819 818 821 820 823 824 824 820 823 821 817 815 820 818 820 829 839 837 837 835 835 838 837 847 850 855
817 818 818 818 819 819 820 820 820 819 818 816 814 814 814 814 813 814 816 817 817 818 816 822 823 823 826 825 829 829 825 821 819 819 820 823 839 839 837 841 842 843 844 849 857 858 853
814 816 817 818 818 819 819 820 820 819 818 816 815 814 814 814 816 815 815 815 815 816 816 825 823 827 828 826 833 832 830 830 823 824 826 836 844 841 841 849 851 845 856 859 861 872 865
811 813 814 815 816 817 818 819 820 819 819 818 816 814 814 814 815 816 817 816 817 818 818 821 825 829 827 830 835 834 834 828 827 833 834 845 849 848 845 850 850 863 860 863 863 869 873
807 809 811 812 813 815 816 817 819 819 818 818 817 817 815 815 815 817 817 818 819 817 813 824 825 825 825 827 832 834 832 833 832 835 839 848 848 845 848 856 856 861 860 862 865 875 900
803 805 807 809 810 812 814 815 817 818 818 817 818 818 817 816 817 816 818 820 820 816 810 823 821 825 821 828 831 832 834 838 839 847 845 851 853 856 853 859 861 861 862 873 877 894 873
798 801 803 805 807 808 810 813 815 816 817 816 817 819 818 818 818 818 820 818 821 796 806 822 821 824 824 826 828 831 831 832 829 834 833 848 852 855 853 852 851 861 855 873 863 854 861
792 794 796 800 802 805 807 808 812 814 816 816 816 819 819 821 820 821 822 819 808 810 814 822 826 827 828 832 839 835 833 822 818 831 842 842 848 857 856 853 857 853 863 862 890 864 873
787 790 792 795 798 801 804 806 809 812 815 816 817 819 821 821 822 823 822 814 810 817 818 818 813 814 805 833 840 838 824 817 830 831 840 836 862 858 867 864 864 868 866 876 875 883 871
783 785 787 789 793 796 799 804 806 810 814 816 817 819 824 822 824 825 823 813 812 819 823 824 815 813 811 823 832 832 817 829 832 841 841 839 847 866 869 868 858 872 879 874 873 877 878
780 780 782 784 787 791 795 799 804 810 813 816 818 820 823 823 827 821 821 816 822 823 826 827 830 824 816 818 827 827 820 832 836 843 849 844 849 864 857 865 864 866 861 862 854 862 882
776 777 778 780 783 786 790 795 800 805 810 814 820 826 826 824 825 822 820 822 824 825 826 827 826 826 834 827 837 826 829 847 842 844 844 852 850 845 855 869 866 867 860 861 876 880 881
773 773 774 776 778 782 785 789 795 803 807 811 821 826 828 827 824 822 814 819 820 821 822 823 827 831 838 837 837 842 838 850 846 845 849 851 859 843 816 840 852 866 848 849 854 881 854
770 770 770 770 772 779 782 785 793 800 804 810 818 815 818 827 822 818 820 821 815 822 827 825 829 831 835 842 837 844 839 854 855 850 856 859 861 849 844 847 852 849 843 844 850 837 835
767 767 765 765 769 774 779 784 788 796 804 810 813 815 822 822 818 817 821 825 817 813 827 829 830 826 831 839 829 839 843 853 850 853 862 870 857 863 854 848 860 858 853 851 836 837 834
767 766 764 765 769 770 774 781 786 792 798 806 811 813 810 817 826 825 819 813 817 814 819 824 823 827 830 829 840 847 845 851 847 850 856 869 863 865 842 864 868 856 844 834 822 817 820
766 766 765 768 769 771 773 778 783 787 791 796 799 809 811 806 817 816 810 809 812 814 820 831 828 826 841 843 849 852 857 859 858 862 853 858 860 864 858 871 852 808 831 827 823 815 819
765 764 766 773 770 770 775 776 780 784 790 796 796 800 806 803 808 810 811 812 818 823 831 832 841 842 839 841 848 849 856 861 865 865 866 866 852 859 860 849 809 802 830 831 825 833 858
764 765 765 768 768 773 772 773 776 782 788 794 794 796 802 804 802 804 804 808 814 822 834 842 846 844 844 839 838 836 833 825 853 868 868 867 865 859 864 853 846 828 835 837 838 849 855
764 763 762 763 765 769 771 772 771 778 783 790 790 794 798 802 806 806 806 809 809 815 827 844 846 849 848 838 835 829 820 827 835 843 869 865 863 860 852 839 832 835 838 842 835 838 858
760 758 757 760 761 764 767 768 768 773 781 782 787 791 795 798 807 810 812 812 815 813 824 840 842 844 846 839 830 822 819 824 824 829 845 846 850 858 850 845 830 842 845 833 855 856 857
755 752 755 756 756 759 761 764 766 769 774 779 784 790 792 798 812 813 815 818 818 821 822 830 823 827 828 830 826 819 814 831 819 816 830 828 818 827 827 824 849 850 855 858 859 857 856